Prairie Du Chien, WI

11:02 AM CDT on April 30, 2017 (GMT -0500)
Prairie Du Chien Municipal

Weather History for KPDC - March, 2013

Change the Weather History Date:

Friday, March 1, 2013

  Actual Average Record
Temperature  
Mean Temperature 22 °F -  
Max Temperature 30 °F 40 °F 64 °F (1992)
Min Temperature 14 °F 19 °F -33 °F (1962)
Degree Days  
Heating Degree Days 43    
Moisture  
Dew Point 15 °F    
Average Humidity 68    
Maximum Humidity 93    
Minimum Humidity 55    
Precipitation  
Precipitation 0.00 in - - ()
Sea Level Pressure  
Sea Level Pressure 30.23 in    
Wind  
Wind Speed 6 mph (North)    
Max Wind Speed 12 mph    
Max Gust Speed -    
Visibility 10 miles    
Events      
Averages and records for this station are not official NWS values.
T = Trace of Precipitation, MM = Missing Value Source: NWS Daily Summary

Daily Weather History Graph

Daily Weather History Graph

Search for Another Location

Airport or City:

Trip Planner

Search our weather history database for the weather conditions in past years. The results will help you decide how hot, cold, wet, or windy it might be!

Date:

Astronomy

Mar. 01, 2013 Rise Set
Actual Time 6:40 AM CST 5:54 PM CST
Civil Twilight 6:11 AM CST 6:22 PM CST
Nautical Twilight 5:38 AM CST 6:55 PM CST
Astronomical Twilight 5:05 AM CST 7:28 PM CST
Moon 10:36 PM CST (3/1) 8:19 AM CST (3/1)
Length of Visible Light 12h 11m
Length of Day
11h 14m
Waning Gibbous, 83% of the Moon is Illuminated
Mar 1
Waning Gibbous
Mar 4
Last Quarter
Mar 11
New
Mar 19
First Quarter
Mar 27
Full

Hourly Weather History & Observations

Time (CST) Temp. Windchill Dew Point Humidity Pressure Visibility Wind Dir Wind Speed Gust Speed Precip Events Conditions
12:15 AM 30.2 °F 23.4 °F 19.4 °F 64% 30.14 in 10.0 mi NNE 6.9 mph - N/A   Overcast
12:35 AM 28.4 °F 22.2 °F 19.4 °F 69% 30.14 in 10.0 mi North 5.8 mph - N/A   Overcast
12:55 AM 28.4 °F 21.2 °F 19.4 °F 69% 30.15 in 10.0 mi North 6.9 mph - N/A   Overcast
1:15 AM 28.4 °F 23.3 °F 19.4 °F 69% 30.15 in 10.0 mi North 4.6 mph - N/A   Overcast
1:35 AM 28.4 °F 21.2 °F 19.4 °F 69% 30.15 in 10.0 mi North 6.9 mph - N/A   Overcast
2:15 AM 28.4 °F 21.2 °F 17.6 °F 64% 30.15 in 10.0 mi North 6.9 mph - N/A   Overcast
2:35 AM 28.4 °F 22.2 °F 17.6 °F 64% 30.15 in 10.0 mi North 5.8 mph - N/A   Overcast
2:55 AM 28.4 °F 21.2 °F 17.6 °F 64% 30.15 in 10.0 mi North 6.9 mph - N/A   Overcast
3:15 AM 28.4 °F 19.7 °F 17.6 °F 64% 30.15 in 10.0 mi NNE 9.2 mph - N/A   Overcast
3:35 AM 28.4 °F 21.2 °F 17.6 °F 64% 30.15 in 10.0 mi North 6.9 mph - N/A   Overcast
4:15 AM 26.6 °F 18.2 °F 17.6 °F 69% 30.16 in 10.0 mi NNE 8.1 mph - N/A   Overcast
4:35 AM 26.6 °F 17.5 °F 17.6 °F 69% 30.16 in 10.0 mi NE 9.2 mph - N/A   Overcast
4:55 AM 26.6 °F 16.2 °F 19.4 °F 74% 30.17 in 7.0 mi NE 11.5 mph - N/A   Overcast
5:15 AM 26.6 °F 17.5 °F 17.6 °F 69% 30.18 in 10.0 mi ENE 9.2 mph - N/A   Overcast
5:35 AM 24.8 °F 15.3 °F 17.6 °F 74% 30.19 in 10.0 mi ENE 9.2 mph - N/A   Overcast
5:55 AM 24.8 °F 16.9 °F 19.4 °F 80% 30.20 in 10.0 mi NE 6.9 mph - N/A   Overcast
6:15 AM 24.8 °F 16.1 °F 17.6 °F 74% 30.20 in 10.0 mi NE 8.1 mph - N/A   Overcast
6:35 AM 24.8 °F 14.6 °F 17.6 °F 74% 30.20 in 10.0 mi NE 10.4 mph - N/A   Overcast
6:55 AM 24.8 °F 16.1 °F 19.4 °F 80% 30.21 in 10.0 mi NE 8.1 mph - N/A   Overcast
7:15 AM 24.8 °F 15.3 °F 17.6 °F 74% 30.22 in 10.0 mi NNE 9.2 mph - N/A   Overcast
7:35 AM 24.8 °F 19.1 °F 15.8 °F 69% 30.23 in 10.0 mi NNE 4.6 mph - N/A   Overcast
8:15 AM 26.6 °F 18.2 °F 12.2 °F 55% 30.24 in 10.0 mi NNE 8.1 mph - N/A   Overcast
8:35 AM 24.8 °F 16.9 °F 12.2 °F 59% 30.24 in 10.0 mi North 6.9 mph - N/A   Overcast
9:15 AM 26.6 °F 17.5 °F 14.0 °F 59% 30.24 in 10.0 mi North 9.2 mph - N/A   Overcast
9:35 AM 26.6 °F 17.5 °F 14.0 °F 59% 30.24 in 10.0 mi North 9.2 mph - N/A   Overcast
9:55 AM 26.6 °F 16.8 °F 14.0 °F 59% 30.24 in 10.0 mi NNE 10.4 mph - N/A   Overcast
10:15 AM 26.6 °F 18.2 °F 15.8 °F 64% 30.25 in 10.0 mi NNE 8.1 mph - N/A   Overcast
10:35 AM 26.6 °F 17.5 °F 15.8 °F 64% 30.25 in 10.0 mi North 9.2 mph - N/A   Overcast
11:15 AM 26.6 °F 19.1 °F 14.0 °F 59% 30.25 in 10.0 mi NNE 6.9 mph - N/A   Overcast
11:35 AM 26.6 °F 19.1 °F 14.0 °F 59% 30.25 in 10.0 mi NNE 6.9 mph - N/A   Overcast
11:55 AM 28.4 °F 21.2 °F 14.0 °F 55% 30.25 in 10.0 mi North 6.9 mph - N/A   Overcast
12:15 PM 28.4 °F 20.4 °F 15.8 °F 59% 30.24 in 10.0 mi North 8.1 mph - N/A   Overcast
12:35 PM 28.4 °F 23.3 °F 15.8 °F 59% 30.24 in 10.0 mi NNE 4.6 mph - N/A   Overcast
12:55 PM 28.4 °F 20.4 °F 15.8 °F 59% 30.24 in 10.0 mi North 8.1 mph - N/A   Overcast
1:35 PM 28.4 °F 21.2 °F 15.8 °F 59% 30.23 in 10.0 mi North 6.9 mph - N/A   Overcast
1:55 PM 28.4 °F 22.2 °F 15.8 °F 59% 30.23 in 10.0 mi NE 5.8 mph - N/A   Overcast
2:15 PM 28.4 °F 23.3 °F 15.8 °F 59% 30.23 in 10.0 mi North 4.6 mph - N/A   Overcast
2:35 PM 28.4 °F 21.2 °F 15.8 °F 59% 30.23 in 10.0 mi NNW 6.9 mph - N/A   Overcast
3:15 PM 28.4 °F 23.3 °F 15.8 °F 59% 30.24 in 10.0 mi NNW 4.6 mph - N/A   Overcast
3:35 PM 28.4 °F 22.2 °F 15.8 °F 59% 30.24 in 10.0 mi North 5.8 mph - N/A   Overcast
3:55 PM 28.4 °F 20.4 °F 15.8 °F 59% 30.24 in 10.0 mi NNW 8.1 mph - N/A   Overcast
4:15 PM 28.4 °F 20.4 °F 15.8 °F 59% 30.24 in 10.0 mi NNW 8.1 mph - N/A   Overcast
4:35 PM 28.4 °F 19.1 °F 15.8 °F 59% 30.24 in 10.0 mi NNW 10.4 mph - N/A   Overcast
4:55 PM 28.4 °F 19.7 °F 15.8 °F 59% 30.25 in 10.0 mi NNW 9.2 mph - N/A   Overcast
5:15 PM 28.4 °F 19.7 °F 15.8 °F 59% 30.25 in 10.0 mi NNW 9.2 mph - N/A   Overcast
5:35 PM 28.4 °F 21.2 °F 14.0 °F 55% 30.26 in 10.0 mi North 6.9 mph - N/A   Overcast
5:55 PM 26.6 °F 21.2 °F 14.0 °F 59% 30.26 in 10.0 mi NNW 4.6 mph - N/A   Mostly Cloudy
6:15 PM 26.6 °F 22.6 °F 14.0 °F 59% 30.26 in 10.0 mi NNW 3.5 mph - N/A   Scattered Clouds
6:35 PM 24.8 °F 20.5 °F 14.0 °F 64% 30.27 in 10.0 mi NNW 3.5 mph - N/A   Mostly Cloudy
6:55 PM 24.8 °F - 14.0 °F 64% 30.27 in 10.0 mi Calm Calm - N/A   Scattered Clouds
7:15 PM 23.0 °F - 14.0 °F 68% 30.27 in 10.0 mi Calm Calm - N/A   Clear
7:35 PM 21.2 °F - 14.0 °F 74% 30.27 in 10.0 mi Calm Calm - N/A   Clear
7:55 PM 19.4 °F - 14.0 °F 80% 30.28 in 10.0 mi Calm Calm - N/A   Clear
8:15 PM 19.4 °F - 14.0 °F 80% 30.28 in 10.0 mi Calm Calm - N/A   Clear
8:35 PM 17.6 °F 12.3 °F 14.0 °F 86% 30.28 in 10.0 mi NW 3.5 mph - N/A   Clear
8:55 PM 21.2 °F 16.4 °F 14.0 °F 74% 30.28 in 10.0 mi NW 3.5 mph - N/A   Clear
9:15 PM 17.6 °F - 12.2 °F 79% 30.28 in 10.0 mi Calm Calm - N/A   Clear
9:35 PM 17.6 °F - 12.2 °F 79% 30.28 in 10.0 mi Calm Calm - N/A   Clear
9:55 PM 15.8 °F - 12.2 °F 86% 30.28 in 10.0 mi Calm Calm - N/A   Clear
10:15 PM 17.6 °F - 12.2 °F 79% 30.28 in 10.0 mi Calm Calm - N/A   Clear
10:35 PM 15.8 °F - 12.2 °F 86% 30.28 in 10.0 mi Calm Calm - N/A   Clear
10:55 PM 14.0 °F - 12.2 °F 93% 30.28 in 10.0 mi Calm Calm - N/A   Clear
11:15 PM 14.0 °F 8.2 °F 10.4 °F 86% 30.27 in 10.0 mi West 3.5 mph - N/A   Clear
11:35 PM 14.0 °F - 10.4 °F 86% 30.27 in 10.0 mi Calm Calm - N/A   Clear
11:55 PM 14.0 °F - 10.4 °F 86% 30.26 in 10.0 mi Calm Calm - N/A   Clear